| time (UTC) | temp F | wind direction | speed knots | gust knots | rain 1hr in | rain 24hr in | rain mn in | humidity % | barometer mb |
| 20260507070000 | 52 | 312 | 0.0 | 0.0 | 0.00 | 0.00 | 0.00 | 92 | 1006.5 |
| 20260507064500 | 52 | 255 | 0.0 | 6.1 | 0.00 | 0.00 | 0.00 | 90 | 1006.5 |
| 20260507063058 | 53 | 326 | 0.0 | 2.6 | 0.00 | 0.00 | 0.00 | 89 | 1005.3 |
| 20260507061558 | 53 | 346 | 0.0 | 1.7 | 0.00 | 0.00 | 0.00 | 89 | 1004.9 |
| 20260507060101 | 53 | 347 | 0.0 | 0.0 | 0.00 | 0.00 | 0.00 | 90 | 1005.0 |
| 20260507054609 | 52 | 25 | 0.0 | 0.9 | 0.00 | 0.00 | 0.00 | 89 | 1005.0 |
| 20260507053058 | 52 | 299 | 0.0 | 0.0 | 0.00 | 0.00 | 0.00 | 89 | 1005.5 |
| 20260507051551 | 51 | 81 | 0.0 | 0.0 | 0.00 | 0.00 | 0.00 | 88 | 1005.2 |
| 20260507050049 | 51 | 88 | 0.0 | 0.0 | 0.00 | 0.00 | 0.00 | 88 | 1005.2 |
| 20260507044543 | 51 | 89 | 0.0 | 0.0 | 0.00 | 0.00 | 0.00 | 89 | 1005.3 |
| 20260507043035 | 50 | 77 | 0.0 | 0.0 | 0.00 | 0.00 | 0.00 | 92 | 1005.3 |
| 20260507041534 | 49 | 75 | 0.0 | 0.0 | 0.00 | 0.00 | 0.00 | 93 | 1005.2 |
| 20260507040038 | 48 | 75 | 0.0 | 0.0 | 0.00 | 0.00 | 0.00 | 93 | 1005.2 |
| 20260507034531 | 48 | 54 | 0.0 | 0.0 | 0.00 | 0.00 | 0.00 | 93 | 1005.0 |
| 20260507033029 | 47 | 54 | 0.0 | 0.0 | 0.00 | 0.00 | 0.00 | 93 | 1005.2 |
| 20260507031528 | 46 | 54 | 0.0 | 0.0 | 0.00 | 0.00 | 0.00 | 93 | 1005.3 |
| 20260507030024 | 46 | 54 | 0.0 | 0.0 | 0.00 | 0.00 | 0.00 | 93 | 1005.4 |
| 20260507024525 | 46 | 54 | 0.0 | 0.0 | 0.00 | 0.00 | 0.00 | 93 | 1005.2 |
| 20260507023022 | 45 | 54 | 0.0 | 0.0 | 0.00 | 0.00 | 0.00 | 93 | 1004.9 |
| 20260507021528 | 45 | 54 | 0.0 | 0.0 | 0.00 | 0.00 | 0.00 | 92 | 1004.9 |
| 20260507020020 | 45 | 54 | 0.0 | 0.0 | 0.00 | 0.00 | 0.00 | 92 | 1005.1 |
| 20260507014522 | 45 | 54 | 0.0 | 0.0 | 0.00 | 0.00 | 0.00 | 92 | 1005.1 |
| 20260507013022 | 45 | 54 | 0.0 | 0.0 | 0.00 | 0.00 | 0.00 | 91 | 1004.9 |
| 20260507011522 | 45 | 54 | 0.0 | 0.0 | 0.00 | 0.00 | 0.00 | 91 | 1004.9 |
| 20260507010024 | 45 | 54 | 0.0 | 0.0 | 0.00 | 0.00 | 0.00 | 91 | 1004.9 |
| 20260507004516 | 46 | 54 | 0.0 | 0.0 | 0.00 | 0.00 | 0.00 | 90 | 1004.8 |
| 20260507003016 | 46 | 54 | 0.0 | 0.0 | 0.00 | 0.00 | 0.00 | 91 | 1004.9 |
| 20260507001515 | 46 | 54 | 0.0 | 0.0 | 0.00 | 0.00 | 0.00 | 90 | 1004.9 |
| 20260507000018 | 47 | 54 | 0.0 | 0.0 | 0.00 | 0.00 | 0.00 | 90 | 1004.9 |
| 20260506234510 | 47 | 54 | 0.0 | 0.0 | 0.00 | 0.00 | 0.00 | 90 | 1004.9 |
| 20260506233010 | 47 | 54 | 0.0 | 0.0 | 0.00 | 0.00 | 0.00 | 90 | 1004.9 |
| 20260506231508 | 47 | 56 | 0.0 | 0.0 | 0.00 | 0.00 | 0.00 | 89 | 1004.9 |
| 20260506230007 | 48 | 56 | 0.0 | 0.0 | 0.00 | 0.00 | 0.00 | 89 | 1005.0 |
| 20260506224505 | 48 | 56 | 0.0 | 0.0 | 0.00 | 0.00 | 0.00 | 87 | 1004.9 |
| 20260506223002 | 48 | 56 | 0.0 | 0.0 | 0.00 | 0.00 | 0.00 | 87 | 1005.0 |
| 20260506221605 | 49 | 56 | 0.0 | 0.0 | 0.00 | 0.00 | 0.00 | 86 | 1004.8 |
| 20260506220058 | 49 | 70 | 0.0 | 0.0 | 0.00 | 0.00 | 0.00 | 86 | 1004.6 |
| 20260506214600 | 50 | 44 | 0.0 | 0.0 | 0.00 | 0.00 | 0.00 | 86 | 1004.6 |
| 20260506213059 | 50 | 72 | 0.0 | 0.0 | 0.00 | 0.00 | 0.00 | 85 | 1004.5 |
| 20260506211556 | 50 | 70 | 0.0 | 0.9 | 0.00 | 0.00 | 0.00 | 85 | 1004.4 |
| 20260506210051 | 50 | 69 | 0.0 | 0.0 | 0.00 | 0.00 | 0.00 | 86 | 1004.3 |
| 20260506204550 | 51 | 62 | 0.0 | 0.0 | 0.00 | 0.00 | 0.00 | 85 | 1004.3 |
| 20260506203052 | 51 | 88 | 0.0 | 0.0 | 0.00 | 0.00 | 0.00 | 85 | 1004.3 |
| 20260506201552 | 52 | 49 | 0.0 | 0.0 | 0.00 | 0.00 | 0.00 | 85 | 1004.4 |
| 20260506200048 | 52 | 29 | 0.0 | 0.0 | 0.00 | 0.00 | 0.00 | 85 | 1004.4 |
| 20260506194549 | 53 | 360 | 0.0 | 0.0 | 0.00 | 0.00 | 0.00 | 84 | 1004.5 |
| 20260506193053 | 53 | 337 | 0.0 | 0.9 | 0.00 | 0.00 | 0.00 | 84 | 1004.4 |
| 20260506191548 | 54 | 346 | 0.0 | 7.0 | 0.00 | 0.00 | 0.00 | 82 | 1004.6 |
| 20260506190050 | 55 | 354 | 0.0 | 0.0 | 0.00 | 0.00 | 0.00 | 81 | 1004.2 |
| 20260506184546 | 55 | 2 | 0.0 | 0.0 | 0.00 | 0.00 | 0.00 | 80 | 1003.8 |
| 20260506183046 | 55 | 333 | 0.0 | 0.0 | 0.00 | 0.00 | 0.00 | 80 | 1003.5 |
| 20260506181600 | 56 | 71 | 0.0 | 7.0 | 0.00 | 0.00 | 0.00 | 79 | 1002.9 |
| 20260506180045 | 56 | 83 | 0.0 | 4.3 | 0.00 | 0.00 | 0.00 | 79 | 1003.0 |
| 20260506174544 | 56 | 46 | 0.0 | 2.6 | 0.00 | 0.00 | 0.00 | 78 | 1003.1 |
| 20260506173111 | 56 | 91 | 0.0 | 7.8 | 0.00 | 0.00 | 0.00 | 77 | 1002.9 |
| 20260506171544 | 57 | 47 | 0.0 | 2.6 | 0.00 | 0.00 | 0.00 | 74 | 1003.0 |
| 20260506170100 | 57 | 56 | 0.0 | 10.4 | 0.00 | 0.00 | 0.00 | 74 | 1003.1 |
| 20260506164541 | 57 | 61 | 0.0 | 8.7 | 0.00 | 0.00 | 0.00 | 74 | 1003.0 |
| 20260506163050 | 58 | 356 | 0.0 | 9.6 | 0.00 | 0.00 | 0.00 | 73 | 1003.2 |
| 20260506161540 | 58 | 337 | 0.0 | 8.7 | 0.00 | 0.00 | 0.00 | 72 | 1003.3 |
| 20260506160042 | 58 | 33 | 0.0 | 9.6 | 0.00 | 0.00 | 0.00 | 74 | 1003.4 |
| 20260506154547 | 58 | 71 | 0.0 | 7.0 | 0.00 | 0.00 | 0.00 | 75 | 1003.5 |
| 20260506153034 | 58 | 70 | 0.0 | 4.3 | 0.00 | 0.00 | 0.00 | 76 | 1003.8 |
| 20260506151534 | 58 | 62 | 0.0 | 8.7 | 0.00 | 0.00 | 0.00 | 78 | 1003.9 |
| 20260506150031 | 59 | 66 | 0.0 | 2.6 | 0.00 | 0.00 | 0.00 | 79 | 1004.1 |
| 20260506144537 | 59 | 47 | 0.0 | 5.2 | 0.00 | 0.00 | 0.00 | 74 | 1004.8 |
| 20260506143031 | 61 | 74 | 0.0 | 5.2 | 0.00 | 0.00 | 0.00 | 70 | 1004.7 |
| 20260506141530 | 64 | 25 | 0.9 | 7.8 | 0.00 | 0.00 | 0.00 | 64 | 1004.5 |
| 20260506140033 | 65 | 56 | 0.9 | 7.0 | 0.00 | 0.00 | 0.00 | 56 | 1004.3 |
| 20260506134527 | 66 | 35 | 1.7 | 5.2 | 0.00 | 0.00 | 0.00 | 55 | 1004.3 |
| 20260506133035 | 67 | 54 | 0.0 | 5.2 | 0.00 | 0.00 | 0.00 | 54 | 1004.4 |
| 20260506131524 | 67 | 1 | 0.9 | 7.8 | 0.00 | 0.00 | 0.00 | 53 | 1004.6 |
| 20260506130022 | 68 | 35 | 1.7 | 7.8 | 0.00 | 0.00 | 0.00 | 53 | 1004.8 |
| 20260506124518 | 67 | 82 | 0.0 | 6.1 | 0.00 | 0.00 | 0.00 | 54 | 1005.0 |
| 20260506123119 | 66 | 339 | 0.0 | 5.2 | 0.00 | 0.00 | 0.00 | 53 | 1005.2 |
| 20260506121516 | 67 | 351 | 1.7 | 9.6 | 0.00 | 0.00 | 0.00 | 52 | 1005.3 |
| 20260506120013 | 66 | 33 | 0.0 | 6.1 | 0.00 | 0.00 | 0.00 | 54 | 1005.5 |
| 20260506114511 | 66 | 68 | 0.0 | 2.6 | 0.00 | 0.00 | 0.00 | 54 | 1005.5 |
| 20260506113008 | 64 | 79 | 0.0 | 8.7 | 0.00 | 0.00 | 0.00 | 54 | 1005.9 |
| 20260506111504 | 64 | 75 | 0.9 | 3.5 | 0.00 | 0.00 | 0.00 | 56 | 1006.2 |
| 20260506110003 | 63 | 59 | 0.9 | 11.3 | 0.00 | 0.00 | 0.00 | 57 | 1006.3 |
| 20260506104504 | 63 | 82 | 0.9 | 10.4 | 0.00 | 0.00 | 0.00 | 56 | 1006.4 |
| 20260506103110 | 63 | 83 | 2.6 | 11.3 | 0.00 | 0.00 | 0.00 | 56 | 1006.5 |
| 20260506101559 | 63 | 73 | 0.9 | 11.3 | 0.00 | 0.00 | 0.00 | 56 | 1006.7 |
| 20260506100056 | 64 | 30 | 0.0 | 7.0 | 0.00 | 0.00 | 0.00 | 55 | 1006.8 |
| 20260506094552 | 62 | 20 | 0.0 | 5.2 | 0.00 | 0.00 | 0.00 | 57 | 1006.7 |
| 20260506093049 | 61 | 36 | 0.0 | 3.5 | 0.00 | 0.00 | 0.00 | 59 | 1006.7 |
| 20260506091549 | 61 | 37 | 0.0 | 12.2 | 0.00 | 0.00 | 0.00 | 58 | 1006.5 |
| 20260506090048 | 61 | 341 | 2.6 | 7.8 | 0.00 | 0.00 | 0.00 | 58 | 1006.7 |
| 20260506084544 | 60 | 47 | 0.9 | 5.2 | 0.00 | 0.00 | 0.00 | 58 | 1006.9 |
| 20260506083044 | 59 | 6 | 1.7 | 7.8 | 0.00 | 0.00 | 0.00 | 60 | 1007.0 |
| 20260506081539 | 59 | 69 | 0.0 | 7.0 | 0.00 | 0.00 | 0.00 | 61 | 1007.2 |
| 20260506073034 | 58 | 15 | 1.7 | 7.8 | 0.00 | 0.00 | 0.00 | 61 | 1007.5 |
| 20260506071528 | 57 | 33 | 0.9 | 5.2 | 0.00 | 0.00 | 0.00 | 62 | 1007.5 |